TimeCDT,TemperatureF,Dew PointF,Humidity,Sea Level PressureIn,VisibilityMPH,Wind Direction,Wind SpeedMPH,Gust SpeedMPH,PrecipitationIn,Events,Conditions,WindDirDegrees,DateUTC
12:15 AM,80.6,74.1,81,29.92,10.0,SE,18.4,23.0,N/A,,Overcast,140,2013-05-28 05:15:00
12:35 AM,80.2,74.3,82,29.92,10.0,SE,16.1,27.6,N/A,,Mostly Cloudy,140,2013-05-28 05:35:00
12:55 AM,80.1,74.7,83,29.91,10.0,SE,18.4,25.3,N/A,,Mostly Cloudy,140,2013-05-28 05:55:00
1:15 AM,80.2,74.7,83,29.91,10.0,SE,18.4,25.3,N/A,,Overcast,140,2013-05-28 06:15:00
1:35 AM,80.6,74.7,82,29.91,10.0,SSE,18.4,28.8,N/A,,Overcast,150,2013-05-28 06:35:00
1:55 AM,80.6,74.7,82,29.91,10.0,SSE,17.3,21.9,N/A,,Overcast,150,2013-05-28 06:55:00
2:15 AM,80.6,74.5,82,29.89,10.0,SSE,20.7,26.5,N/A,,Mostly Cloudy,150,2013-05-28 07:15:00
2:35 AM,80.6,74.3,81,29.89,10.0,SSE,19.6,28.8,N/A,,Mostly Cloudy,150,2013-05-28 07:35:00
2:55 AM,80.4,74.3,82,29.88,10.0,SSE,21.9,27.6,N/A,,Overcast,150,2013-05-28 07:55:00
3:15 AM,80.2,74.5,83,29.87,10.0,SSE,21.9,27.6,N/A,,Overcast,150,2013-05-28 08:15:00
3:35 AM,80.2,74.3,82,29.87,10.0,SSE,21.9,28.8,N/A,,Overcast,150,2013-05-28 08:35:00
3:55 AM,80.2,74.3,82,29.87,10.0,SSE,18.4,28.8,N/A,,Overcast,150,2013-05-28 08:55:00
4:15 AM,80.4,74.3,82,29.87,10.0,SSE,18.4,25.3,N/A,,Overcast,150,2013-05-28 09:15:00
4:35 AM,80.2,74.1,82,29.86,10.0,SSE,19.6,26.5,N/A,,Overcast,150,2013-05-28 09:35:00
4:55 AM,80.2,74.3,82,29.86,10.0,SSE,16.1,21.9,N/A,,Overcast,150,2013-05-28 09:55:00
5:15 AM,80.1,74.5,83,29.86,10.0,SSE,19.6,25.3,N/A,,Mostly Cloudy,150,2013-05-28 10:15:00
5:35 AM,80.1,75.0,85,29.85,10.0,SSE,17.3,23.0,N/A,,Mostly Cloudy,160,2013-05-28 10:35:00
5:55 AM,80.2,75.2,85,29.86,10.0,SSE,16.1,23.0,N/A,,Overcast,150,2013-05-28 10:55:00
6:15 AM,80.4,75.0,84,29.85,10.0,SSE,16.1,25.3,N/A,,Overcast,160,2013-05-28 11:15:00
6:35 AM,80.6,74.8,83,29.85,10.0,SSE,20.7,26.5,N/A,,Mostly Cloudy,160,2013-05-28 11:35:00
6:55 AM,80.6,74.7,82,29.85,10.0,SSE,20.7,25.3,N/A,,Overcast,160,2013-05-28 11:55:00
7:15 AM,80.6,75.0,83,29.86,10.0,SSE,15.0,26.5,N/A,,Overcast,160,2013-05-28 12:15:00
7:35 AM,81.0,75.0,82,29.85,10.0,SSE,19.6,25.3,N/A,,Overcast,160,2013-05-28 12:35:00
7:55 AM,81.3,74.7,80,29.86,10.0,SSE,17.3,24.2,N/A,,Overcast,160,2013-05-28 12:55:00
8:15 AM,81.7,74.7,79,29.86,10.0,SSE,21.9,27.6,N/A,,Overcast,160,2013-05-28 13:15:00
8:35 AM,82.2,74.3,77,29.87,10.0,South,16.1,26.5,N/A,,Overcast,170,2013-05-28 13:35:00
8:55 AM,82.9,74.1,75,29.87,10.0,SSE,21.9,27.6,N/A,,Mostly Cloudy,160,2013-05-28 13:55:00
9:15 AM,83.1,74.1,74,29.87,10.0,SSE,21.9,29.9,N/A,,Mostly Cloudy,160,2013-05-28 14:15:00
9:35 AM,84.2,74.1,72,29.87,10.0,SSE,24.2,31.1,N/A,,Overcast,150,2013-05-28 14:35:00
9:55 AM,84.9,74.1,70,29.87,10.0,SSE,23.0,31.1,N/A,,Mostly Cloudy,160,2013-05-28 14:55:00
10:15 AM,84.7,73.8,69,29.87,10.0,South,19.6,31.1,N/A,,Overcast,170,2013-05-28 15:15:00
10:35 AM,84.7,73.8,69,29.88,10.0,South,21.9,29.9,N/A,,Overcast,170,2013-05-28 15:35:00
10:55 AM,85.3,73.8,68,29.87,10.0,SSE,23.0,29.9,N/A,,Overcast,150,2013-05-28 15:55:00
11:15 AM,86.0,73.9,67,29.87,10.0,SSE,24.2,32.2,N/A,,Mostly Cloudy,150,2013-05-28 16:15:00
11:35 AM,86.7,73.8,65,29.88,10.0,SSE,18.4,28.8,N/A,,Overcast,160,2013-05-28 16:35:00
11:55 AM,86.5,74.1,66,29.88,10.0,SSE,19.6,31.1,N/A,,Overcast,150,2013-05-28 16:55:00
12:15 PM,86.2,73.8,66,29.87,10.0,SSE,23.0,29.9,N/A,,Overcast,150,2013-05-28 17:15:00
12:35 PM,86.4,73.9,66,29.87,10.0,SSE,20.7,31.1,N/A,,Overcast,150,2013-05-28 17:35:00
12:55 PM,86.7,74.1,66,29.87,10.0,SSE,23.0,27.6,N/A,,Overcast,150,2013-05-28 17:55:00
1:15 PM,87.1,73.9,65,29.86,10.0,SE,23.0,31.1,N/A,,Overcast,140,2013-05-28 18:15:00
1:35 PM,86.7,73.8,65,29.86,10.0,SSE,18.4,31.1,N/A,,Overcast,150,2013-05-28 18:35:00
1:55 PM,86.9,73.9,65,29.86,10.0,SSE,25.3,28.8,N/A,,Overcast,150,2013-05-28 18:55:00
2:15 PM,87.1,73.4,64,29.85,10.0,SE,24.2,31.1,N/A,,Overcast,140,2013-05-28 19:15:00
2:35 PM,87.3,73.4,63,29.85,10.0,SSE,20.7,31.1,N/A,,Mostly Cloudy,150,2013-05-28 19:35:00
2:55 PM,88.0,73.4,62,29.85,10.0,SSE,21.9,31.1,N/A,,Overcast,150,2013-05-28 19:55:00
3:15 PM,87.8,73.2,62,29.84,10.0,SE,23.0,32.2,N/A,,Mostly Cloudy,140,2013-05-28 20:15:00
3:35 PM,88.7,73.0,60,29.84,10.0,SE,25.3,31.1,N/A,,Mostly Cloudy,140,2013-05-28 20:35:00
3:55 PM,88.9,73.2,60,29.83,10.0,SE,25.3,33.4,N/A,,Scattered Clouds,130,2013-05-28 20:55:00
4:15 PM,88.3,73.2,61,29.83,10.0,SE,26.5,34.5,N/A,,Scattered Clouds,140,2013-05-28 21:15:00
4:35 PM,88.2,73.4,61,29.81,10.0,SE,27.6,36.8,N/A,,Scattered Clouds,130,2013-05-28 21:35:00
4:55 PM,87.4,73.4,63,29.81,10.0,SE,28.8,34.5,N/A,,Scattered Clouds,140,2013-05-28 21:55:00
5:15 PM,86.9,73.6,64,29.81,10.0,SE,29.9,36.8,N/A,,Scattered Clouds,130,2013-05-28 22:15:00
5:35 PM,86.5,73.4,65,29.80,10.0,SE,28.8,36.8,N/A,,Scattered Clouds,130,2013-05-28 22:35:00
5:55 PM,85.5,73.6,67,29.80,10.0,SE,26.5,36.8,N/A,,Scattered Clouds,140,2013-05-28 22:55:00
6:15 PM,84.9,73.4,68,29.80,10.0,SE,24.2,34.5,N/A,,Mostly Cloudy,140,2013-05-28 23:15:00
6:35 PM,84.6,73.6,69,29.80,10.0,SE,20.7,34.5,N/A,,Mostly Cloudy,140,2013-05-28 23:35:00
6:55 PM,84.0,73.8,71,29.80,10.0,SE,20.7,28.8,N/A,,Mostly Cloudy,140,2013-05-28 23:55:00
7:15 PM,82.9,73.9,74,29.80,10.0,SE,23.0,31.1,N/A,,Overcast,140,2013-05-29 00:15:00
7:35 PM,82.4,73.8,75,29.80,10.0,SSE,20.7,32.2,N/A,,Overcast,150,2013-05-29 00:35:00
7:55 PM,82.0,73.8,76,29.80,10.0,SE,16.1,32.2,N/A,,Mostly Cloudy,140,2013-05-29 00:55:00
8:15 PM,81.7,73.8,77,29.80,10.0,SE,24.2,31.1,N/A,,Mostly Cloudy,140,2013-05-29 01:15:00
8:35 PM,81.1,73.6,78,29.81,10.0,SE,21.9,31.1,N/A,,Scattered Clouds,140,2013-05-29 01:35:00
8:55 PM,81.0,73.8,79,29.81,10.0,SE,21.9,33.4,N/A,,Mostly Cloudy,140,2013-05-29 01:55:00
9:15 PM,80.8,73.6,79,29.80,10.0,SE,24.2,31.1,N/A,,Scattered Clouds,140,2013-05-29 02:15:00
9:35 PM,80.6,73.4,79,29.80,10.0,SE,21.9,31.1,N/A,,Scattered Clouds,140,2013-05-29 02:35:00
9:55 PM,80.6,73.4,79,29.81,10.0,SE,24.2,29.9,N/A,,Mostly Cloudy,140,2013-05-29 02:55:00
10:15 PM,80.8,73.4,78,29.81,10.0,SE,20.7,29.9,N/A,,Mostly Cloudy,140,2013-05-29 03:15:00
10:35 PM,80.6,73.4,79,29.81,10.0,SE,23.0,28.8,N/A,,Mostly Cloudy,130,2013-05-29 03:35:00
10:55 PM,80.6,73.4,79,29.82,10.0,SE,21.9,31.1,N/A,,Mostly Cloudy,140,2013-05-29 03:55:00
11:15 PM,80.6,73.2,78,29.82,10.0,SE,25.3,31.1,N/A,,Mostly Cloudy,140,2013-05-29 04:15:00
11:35 PM,80.6,73.4,79,29.81,10.0,SE,23.0,29.9,N/A,,Mostly Cloudy,140,2013-05-29 04:35:00
11:55 PM,80.6,73.4,79,29.81,10.0,SE,25.3,33.4,N/A,,Mostly Cloudy,140,2013-05-29 04:55:00